Weather Roundup
Issued by NWS Chicago, IL

Home | Current Version | Previous Version | Graphics & Text | Print | Product List | Glossary On
Versions: 1 2 3 4 5 6 7 8 9 10 11 12 13 14 15 16 17 18 19 20 21 22 23 24 25 26 27 28 29 30 31 32 33 34 35 36 37 38 39 40 41 42 43 44 45 46 47 48 49 50
000
NZUS59 KLOT 290209
HRRLOT

CHICAGO AREA WEATHER ROUNDUP
NATIONAL WEATHER SERVICE CHICAGO/ROMEOVILLE IL
900 PM CDT SUN MAY 28 2017

NOTE: "FAIR" INDICATES FEW OR NO CLOUDS BELOW 12,000 FEET WITH NO
SIGNIFICANT WEATHER AND/OR OBSTRUCTIONS TO VISIBILITY.

* THESE STATIONS ARE NOT UNDER NWS QUALITY CONTROL. THEY ALSO MAY NOT
  REPORT WEATHER SUCH AS PRECIPITATION OR FOG.

ILZ005-006-012>014-019>023-290300-
NORTHEAST ILLINOIS

CITY           SKY/WX    TMP DP  RH WIND       PRES   REMARKS
OHARE          PTCLDY    70  47  43 W8        29.75R
MIDWAY         PTCLDY    72  50  45 W6        29.76R
AURORA         CLEAR     64  53  67 W6        29.77R
LANSING*       PTCLDY    68  57  68 W6        29.77R
JOLIET*        CLEAR     71  51  49 CALM      29.78R
WAUKEGAN       CLEAR     69  45  41 VRB3      29.73R
DUPAGE AIRPORT CLEAR     67  50  54 W5        29.76R
WHEELING       CLEAR     70  46  42 W7        29.76R
KANKAKEE*      CLEAR     69  53  56 CALM      29.79S
MORRIS*        CLEAR     68  50  51 CALM      29.76S
LEWIS AIRPORT* CLEAR     68  52  57 W6        29.77S
NORTHERLY ISL    N/A     72  44  36 W5          N/A
$$

WIZ051-052-058>065-066-070>072-290300-
SOUTHEAST WISCONSIN

CITY           SKY/WX    TMP DP  RH WIND       PRES   REMARKS
MILWAUKEE      PTCLDY    71  45  39 W9        29.72R
KENOSHA*       CLEAR     63  47  55 W8        29.74R
RACINE*        CLEAR     68  46  45 W6        29.74R
WEST BEND      CLEAR     63  45  51 W5        29.72R
$$

INZ001>003-010>013-019-020-290300-
NORTHWEST INDIANA

CITY           SKY/WX    TMP DP  RH WIND       PRES   REMARKS
GARY*          PTCLDY    66  54  63 VRB5      29.77R
MICHIGAN CITY* NOT AVBL
RENSSELAER*    NOT AVBL
VALPARAISO     PTCLDY    68  56  65 CALM      29.77S
$$

LMZ740>746-290300-
SOUTHERN LAKE MICHIGAN

STATION/POSITION TIME  SKY/WX   TEMP WIND        PRES    VSBY
                                AIR  DIR/SP/G
                 (UTC)          (F)  (DEG/KT/KT) (MB)    (MI)
HARRISON CRIB    0140            68  310/  5/  6   N/A
BURNHAM HARBOR   0200            72  260/  8/ 14   N/A
CALUMET HARBOR   0142            72  270/  2/  7 1007.3R
BURNS HARBOR     0140            65  190/  4/  4 1008.1S
MICHIGAN CITY    0140            66  150/  4/  4   N/A
$$

ABBREVIATIONS USED IN REMARKS
   TC - TEMPERATURE IN CELSIUS
  WCI - WIND CHILL INDEX
   HX - HEAT INDEX
  VSB - VISIBILITY
$$



USA.gov is the U.S. government's official web portal to all federal, state and local government web resources and services.